SCP
-0 -0 -0 -0 -0 -0 -0 -0 -0 -0 -0 -0 -0 -0 -0 -0 -0 -0 -0 -0 -0 -0 -0 -0 0 0 0 0 0 0 0 0 0 0 0 0 0 0 0 0 0 -0 -0 0 0 0 0
0 -0 -0 -0 -0 -0 -0 -0 -0 -0 -0 -0 -0 -0 -0 -0 -0 -0 -0 -0 -0 -0 -0 0 0 0 0 0 0 0 0 0 0 0 0 0 0 0 0 0 0 -0 0 0 -0 -0 0
-0 -0 -0 -0 -0 -0 -0 -0 -0 -0 -0 -0 -0 -0 -0 -0 -0 -0 -0 -0 -0 0 -0 -0 0 0 0 -0 0 0 0 0 0 0 0 0 0 0 0 0 -0 0 0 0 -0 -0 -0
-0 -0 0 0 -0 -0 -0 -0 -0 -0 -0 -0 -0 -0 -0 -0 -0 -0 -0 -0 -0 -0 -0 0 -0 -0 0 -0 -0 0 0 0 0 0 0 0 0 0 0 0 0 0 0 0 -0 -0 0
0 0 0 0 0 0 -0 -0 -0 -0 -0 -0 -0 -0 -0 -0 -0 -0 -0 -0 -0 0 0 -0 -0 -0 0 0 0 0 0 0 0 0 0 0 0 0 0 0 0 0 0 0 0 0 0
0 0 0 0 0 0 0 -0 -0 -0 -0 -0 -0 -0 -0 -0 -0 -0 -0 -0 0 0 0 -0 -0 0 0 0 0 0 0 0 0 0 0 0 0 0 0 0 0 0 0 0 0 0 0
0 0 0 0 0 0 0 0 -0 -0 -0 -0 -0 -0 -0 -0 -0 -0 0 0 0 0 -0 0 0 -0 0 0 0 -0 0 0 0 0 0 0 0 0 0 0 0 0 0 0 0 0 0
0 0 0 -0 -0 0 -0 -0 -0 -0 -0 -0 -0 -0 -0 -0 -0 -0 0 0 -0 -0 -0 0 0 -0 0 0 0 0 -0 0 0 0 0 0 0 0 0 0 0 0 0 0 0 0 0
0 0 0 0 0 0 -0 -0 0 0 -0 0 0 -0 -0 -0 -0 0 0 -0 -0 -0 0 0 0 0 -0 0 0 0 0 0 0 0 0 0 0 0 0 0 0 0 0 0 0 0 0
0 0 0 0 -0 -0 0 0 0 0 -0 -0 -0 -0 -0 -0 0 0 0 0 0 -0 0 0 -0 -0 0 0 0 -0 -0 0 0 0 0 0 0 0 0 0 0 0 0 0 0 0 0
0 0 0 0 -0 -0 0 0 0 -0 0 -0 -0 0 0 0 0 0 0 0 0 0 0 0 -0 -0 0 0 0 0 0 0 0 0 0 0 0 0 0 0 0 0 0 0 0 0 0
0 0 0 0 0 0 0 0 0 0 -0 -0 -0 0 0 -0 0 0 0 0 0 0 0 0 0 -0 0 -0 0 0 -0 0 0 0 0 0 0 0 0 0 0 0 0 0 0 0 0
0 0 0 0 0 0 0 0 0 0 0 0 -0 0 0 0 0 0 0 0 0 0 0 0 0 0 -0 -0 0 0 0 0 0 0 0 0 0 0 0 0 0 0 0 0 0 0 0
0 0 0 0 0 0 0 0 0 0 0 0 0 -0 -0 0 0 0 0 0 0 0 0 0 0 0 -0 -0 -0 0 0 0 0 0 0 0 0 0 0 0 0 0 0 0 0 0 0
0 0 0 0 0 0 0 0 0 0 0 0 0 0 0 0 0 0 0 0 0 0 0 0 0 0 0 0 0 0 0 0 0 0 0 0 0 0 0 0 0 0 0 0 0 0 0
0 0 0 0 0 0 0 0 0 0 0 0 -0 0 0 0 0 0 0 0 0 0 0 0 0 0 0 0 0 0 0 0 0 0 0 0 0 0 0 0 0 0 0 0 0 0 0
0 0 0 0 0 0 0 0 0 0 0 0 -0 0 0 0 0 0 0 0 0 0 0 0 0 0 0 0 0 0 0 0 0 0 0 0 0 0 0 0 0 0 0 0 0 0 0
0 0 0 0 0 0 0 0 0 0 0 0 0 0 0 0 0 0 0 0 0 0 0 0 0 0 0 0 0 0 0 0 0 0 0 0 0 0 0 0 0 0 0 0 0 0 0
0 0 0 0 0 0 0 0 0 0 0 0 0 0 0 0 0 0 0 0 0 0 0 0 0 0 0 0 0 0 0 -0 0 0 0 0 0 0 0 0 0 0 0 0 0 0 0
0 0 0 0 0 0 0 0 0 0 0 0 0 0 0 0 0 0 0 0 0 0 0 0 0 0 0 0 0 0 0 0 0 0 0 0 0 0 0 0 0 0 0 0 0 0 0
0 0 0 0 0 0 0 0 0 0 0 0 0 0 0 0 0 0 0 0 0 0 0 0 0 0 0 0 0 0 0 0 0 0 0 0 0 0 0 0 0 0 0 0 0 0 0
0 0 0 0 0 0 0 0 0 0 0 0 0 0 0 0 0 0 0 0 0 0 0 0 0 0 0 0 0 0 0 0 0 0 0 0 0 0 0 0 0 0 0 0 0 0 0
0 0 0 0 0 0 0 0 0 0 0 0 0 0 0 0 0 0 0 0 0 0 0 0 0 0 0 0 0 0 0 0 0 0 0 0 0 0 0 0 0 0 0 0 0 0 0
0 0 0 0 0 0 0 0 0 0 0 0 0 0 0 0 0 0 0 0 0 0 0 0 0 0 0 0 0 0 0 0 0 0 0 0 0 0 0 0 0 0 0 0 0 0 0
0 0 0 0 0 0 0 0 0 0 0 0 0 0 0 0 0 0 0 0 0 0 0 0 0 0 0 0 0 0 0 0 0 0 0 0 0 0 0 0 0 0 0 0 0 0 0
0 0 0 0 0 0 0 0 0 0 0 0 0 0 0 0 0 0 0 0 0 0 0 0 0 0 0 0 0 0 0 0 0 0 0 0 0 0 0 0 0 0 0 0 0 0 0
0 0 0 0 0 0 0 0 0 0 0 0 0 0 0 0 0 0 0 0 0 0 0 0 0 0 0 0 0 0 0 0 0 0 0 0 0 0 0 0 0 0 0 0 0 0 0
0 0 0 0 0 0 0 0 0 0 0 0 0 0 0 0 0 0 0 0 0 0 0 0 0 0 0 0 0 0 0 0 0 0 0 0 0 0 0 0 0 0 0 0 0 0 0
0 0 0 0 0 0 0 0 0 0 0 0 0 0 0 0 0 0 0 0 0 0 0 0 0 0 0 0 0 0 0 0 0 0 0 0 0 0 0 0 0 0 0 0 0 0 0
Wind_Speed_500mb
25 28 30 33 36 38 40 41 43 44 44 45 44 44 42 42 40 36 33 31 26 22 21 21 20 18 13 11 3 7 4 14 15 10 8 3 8 6 2 8 4 8 6 22 29 27 27
26 28 31 33 36 38 40 42 43 44 45 45 44 43 43 41 40 36 31 28 25 22 20 19 19 22 18 8 4 8 3 12 12 10 6 6 11 19 9 8 3 17 28 18 16 7 5
26 29 32 34 37 38 40 42 44 44 45 46 45 44 43 41 40 37 30 26 26 23 20 19 21 26 22 10 5 4 4 8 12 9 5 11 18 14 12 2 9 38 15 14 6 1 2
28 31 34 35 37 39 40 42 44 45 45 46 46 45 43 40 40 35 26 29 28 21 18 18 22 26 15 11 14 9 3 14 8 3 7 11 18 15 1 9 14 11 11 11 7 3 5
32 33 35 37 38 40 41 42 43 45 47 46 47 46 43 40 38 30 29 27 33 16 9 18 21 15 18 13 11 9 9 8 2 2 3 14 12 2 3 12 10 12 10 4 4 15 2
34 36 36 38 39 41 42 43 43 45 48 49 49 47 44 39 35 26 29 19 22 8 6 20 9 9 13 3 23 19 13 12 16 11 8 0 4 7 8 10 10 10 7 7 15 21 15
35 37 39 39 40 42 42 43 47 48 48 49 52 49 46 39 33 22 30 14 27 8 37 34 37 45 54 28 24 15 19 17 16 5 6 7 9 7 12 7 6 3 3 5 10 18 22
38 38 40 42 42 44 46 47 47 49 53 53 50 50 49 40 33 14 17 22 26 26 33 56 59 55 52 46 17 23 13 12 8 7 4 12 8 18 9 9 8 6 4 14 18 12 14
39 40 41 42 44 47 50 52 53 52 51 52 53 51 49 39 28 6 10 20 31 35 14 38 15 32 45 24 28 34 19 20 7 5 5 10 12 8 5 8 7 6 4 9 15 10 8
42 45 47 49 50 51 51 51 54 55 55 52 51 50 48 42 15 26 4 18 25 26 7 12 8 9 27 24 13 33 32 21 2 14 11 10 8 6 9 14 16 8 14 12 8 7 8
48 49 50 51 52 54 55 57 54 53 53 51 48 48 44 41 38 27 23 19 22 5 7 2 4 2 22 30 3 13 37 33 12 10 10 13 9 13 10 15 15 21 14 17 6 7 9
47 48 49 48 48 50 51 51 51 51 51 49 46 44 46 41 35 20 19 17 7 10 11 10 9 9 11 12 4 6 19 29 18 8 5 13 10 9 16 9 13 10 10 15 10 7 4
43 45 46 47 48 48 48 48 48 47 48 49 45 44 45 47 34 29 19 15 9 6 10 8 5 4 7 12 7 12 9 9 12 5 5 10 8 10 11 4 6 12 13 4 5 6 10
41 42 43 46 48 49 49 49 49 49 50 51 49 47 45 41 34 23 8 8 6 7 10 7 8 11 13 7 10 9 8 9 5 6 6 5 13 6 2 9 13 1 14 12 12 7 11
41 41 41 42 43 44 46 47 49 49 49 54 52 48 43 32 18 18 17 4 14 12 6 10 14 8 8 9 3 0 11 14 16 16 15 10 12 8 7 8 17 10 5 9 14 7 5
42 43 43 44 45 45 46 45 45 46 45 47 51 48 20 15 18 31 7 11 9 7 7 9 2 3 6 7 4 5 4 8 13 20 14 13 3 8 8 3 10 14 15 6 6 7 7
41 42 43 44 45 45 44 44 43 42 40 39 38 23 23 7 32 20 8 14 9 17 6 3 5 6 9 8 12 9 9 9 5 10 15 9 7 16 4 5 13 2 4 13 11 9 11
42 42 41 42 43 42 41 39 39 39 34 28 17 7 12 7 4 4 8 12 8 4 6 8 6 16 11 5 8 11 15 9 4 3 3 8 11 12 16 9 5 13 11 11 10 7 1
43 42 40 40 42 40 38 35 32 32 30 25 14 15 18 9 6 7 10 6 8 5 7 6 7 7 6 7 6 13 10 10 5 4 3 8 1 1 16 13 10 7 9 11 11 7 13
42 42 38 39 37 37 36 30 29 26 22 17 10 7 7 8 5 5 6 10 9 14 13 16 12 14 11 10 15 10 10 3 1 1 2 7 7 13 16 17 5 6 10 9 13 9 10
37 36 36 35 35 37 30 26 26 22 19 10 5 7 5 7 3 7 4 6 3 5 7 5 9 6 5 9 11 9 10 4 4 3 7 9 9 9 11 11 6 8 5 8 9 10 13
36 35 31 31 28 31 31 27 21 22 18 11 6 8 12 13 21 9 4 7 8 5 6 8 11 13 12 12 15 10 6 8 8 1 6 3 5 2 7 8 10 10 13 17 14 10 10
32 31 30 29 27 26 25 23 22 20 16 7 8 9 8 12 9 5 6 5 8 9 14 18 11 9 10 14 18 14 13 8 9 9 5 6 10 6 9 8 12 15 14 18 12 10 13
30 30 29 29 29 28 25 22 19 17 17 16 13 8 4 8 6 7 9 11 15 13 10 26 24 8 11 26 15 10 12 16 13 13 16 10 10 7 8 2 17 12 9 13 18 11 11
31 31 35 35 32 30 29 25 24 21 19 18 16 13 7 9 12 22 19 10 20 23 9 15 20 9 29 10 4 4 7 7 10 17 16 13 10 5 8 10 10 10 8 10 13 16 13
34 33 33 32 30 28 25 24 29 27 25 26 18 20 15 8 11 13 9 16 6 7 11 11 16 27 10 5 5 13 12 10 9 5 3 9 6 11 8 9 16 8 26 43 8 32 19
35 32 31 35 37 36 35 34 31 26 28 32 26 28 30 19 40 27 9 10 13 6 6 13 22 14 10 3 9 9 10 10 10 12 10 8 4 15 7 12 13 13 21 25 15 19 9
36 31 30 32 29 27 31 38 34 33 29 33 35 32 37 26 47 38 32 28 23 10 4 15 16 4 8 2 6 8 8 12 10 11 13 14 11 8 6 6 15 10 4 13 5 4 5
40 36 31 33 34 31 27 30 32 29 31 33 35 30 32 44 26 24 41 44 42 39 22 10 8 9 5 4 4 6 5 2 8 13 5 13 15 11 17 13 7 5 9 11 8 12 15
Wind_Direction_500mb
7 5 3 2 2 1 359 359 359 358 357 357 357 357 358 356 357 354 350 350 351 351 358 2 360 350 337 311 268 348 296 186 193 197 183 278 346 7 9 280 270 102 68 122 155 166 155
358 357 355 355 355 354 353 353 354 353 352 352 353 353 354 353 353 351 346 336 336 336 335 345 350 341 325 304 302 15 120 172 175 169 148 342 341 338 246 275 36 129 104 81 153 150 134
347 346 346 346 346 347 347 347 348 348 348 348 349 351 351 350 350 349 346 334 327 323 315 325 332 334 312 308 264 331 108 147 141 141 302 341 341 334 309 340 88 108 87 51 336 125 252
336 336 336 337 338 339 341 342 342 342 343 344 344 348 348 349 348 350 354 343 335 314 309 312 319 324 281 274 263 267 147 152 131 55 353 359 344 308 232 106 67 75 62 120 240 305 252
327 328 328 330 332 334 336 337 338 338 339 340 340 343 345 349 346 350 355 342 350 319 321 331 307 310 281 265 280 283 220 184 343 225 328 322 308 14 71 90 44 351 159 182 16 208 269
318 320 322 324 327 330 331 332 333 334 335 336 336 338 340 346 345 346 355 355 352 41 6 333 309 312 261 259 322 299 213 255 276 300 302 232 31 38 46 69 180 175 140 160 176 212 229
311 314 317 320 324 324 325 328 329 330 331 332 332 334 334 341 344 344 5 3 17 331 314 282 268 279 282 287 302 272 238 243 256 223 173 29 67 230 243 151 130 120 140 282 249 200 164
308 312 315 318 319 320 322 324 325 326 328 328 329 330 329 337 338 339 1 42 16 321 297 295 280 268 263 270 295 240 276 197 152 179 108 19 262 233 226 187 179 151 11 296 287 144 152
309 310 311 312 314 316 318 319 320 322 322 324 327 329 326 333 333 321 333 1 343 337 274 306 255 234 239 231 234 254 264 208 163 147 149 161 232 76 185 297 341 328 229 256 220 147 68
304 305 306 308 310 311 312 313 315 317 319 323 324 326 326 330 329 330 307 315 323 325 25 276 248 243 201 209 271 238 237 200 193 208 170 229 266 211 213 233 147 243 209 213 243 121 183
303 303 303 306 309 310 312 314 315 315 317 319 321 322 322 325 318 321 304 318 323 314 339 284 217 240 168 163 252 214 209 204 185 206 111 244 296 338 305 235 140 228 172 189 159 121 109
304 305 305 307 307 308 311 313 315 316 315 315 317 318 315 314 311 314 312 309 325 45 255 316 160 182 130 216 257 88 197 209 234 179 210 236 255 202 224 251 177 132 98 52 49 84 59
304 306 308 310 311 312 313 314 314 314 313 312 312 313 310 302 302 302 306 317 40 161 316 344 1 334 209 203 235 181 175 185 186 133 307 333 265 277 216 107 39 81 68 352 341 9 203
303 305 307 310 312 313 314 315 315 317 317 314 315 312 305 297 297 278 251 50 197 244 254 328 309 273 182 185 245 192 163 221 241 110 120 164 322 208 226 148 193 190 147 153 199 207 243
306 307 308 309 312 314 316 318 318 319 321 317 319 317 312 307 260 213 173 116 212 211 304 359 335 56 31 7 123 260 211 213 199 169 176 160 272 288 202 203 147 181 157 179 102 16 74
303 305 307 309 310 313 316 318 318 319 322 322 326 327 328 336 187 171 103 227 235 237 30 18 256 20 9 311 6 28 231 260 239 193 164 218 274 207 270 107 65 162 154 78 16 139 230
299 303 306 307 309 312 314 316 318 319 322 324 327 330 332 225 159 170 176 224 267 264 358 318 242 303 231 244 192 209 216 283 51 9 171 144 121 277 49 182 184 312 100 52 113 127 165
298 301 304 306 308 310 313 316 317 318 324 325 319 329 162 35 310 224 180 194 213 263 5 278 249 214 235 264 276 222 206 221 318 43 214 215 164 226 203 302 239 167 164 133 118 237 174
296 298 302 305 308 309 310 314 316 320 326 337 310 271 243 198 206 259 282 253 221 220 166 261 290 232 248 251 269 216 219 242 83 84 199 180 275 271 330 353 343 208 173 119 116 95 189
289 294 295 297 303 305 305 310 309 315 318 322 309 327 298 211 226 197 254 259 236 268 242 234 243 258 307 263 204 255 216 255 43 244 68 98 145 169 208 216 175 199 185 144 129 129 191
289 291 293 296 299 307 305 301 300 301 303 301 261 270 329 302 8 351 292 302 258 285 247 270 318 256 260 278 321 233 231 256 273 202 95 118 218 182 238 242 198 204 241 154 182 199 168
281 280 282 289 295 301 300 305 298 292 290 263 292 333 334 291 304 311 225 251 238 270 214 239 215 320 297 223 209 254 254 190 200 83 120 38 249 210 279 279 243 237 206 229 213 188 230
276 278 280 284 289 299 302 301 307 304 283 244 234 273 302 285 322 9 245 337 333 345 267 258 0 299 288 248 229 252 241 220 171 143 148 135 135 104 260 283 320 312 205 213 216 192 184
271 275 280 281 283 287 287 287 298 307 297 262 250 297 304 278 249 217 320 332 312 310 271 291 306 241 281 292 269 239 246 256 218 209 166 140 128 139 222 82 257 235 210 201 225 239 215
271 272 277 278 277 279 277 271 277 281 293 287 269 247 260 270 317 297 295 309 320 308 266 268 286 295 298 280 45 329 323 321 239 218 193 174 139 198 192 205 289 305 287 198 173 257 197
265 271 276 279 277 276 273 267 268 262 271 272 277 250 237 287 244 283 313 298 295 306 316 276 296 310 306 146 129 205 208 208 256 261 17 137 90 177 140 201 233 215 219 232 300 271 231
255 263 270 272 267 262 263 265 263 257 273 272 255 242 235 256 263 290 284 306 301 319 274 298 334 318 7 151 184 181 223 198 205 189 176 146 171 214 169 244 282 241 207 198 215 259 137
247 252 265 267 266 273 264 258 261 259 271 250 251 245 233 250 260 267 272 289 291 284 261 327 333 352 338 290 186 218 192 217 182 196 183 187 172 196 144 217 291 343 341 201 266 129 135
248 247 256 266 261 257 265 261 250 251 261 240 248 255 246 247 258 252 260 261 252 249 286 280 279 311 299 338 346 314 293 276 172 227 216 232 207 210 187 210 232 282 258 279 232 228 222
Wind_Speed_850mb
25 28 30 33 36 38 40 41 43 44 44 45 44 44 42 42 40 36 33 31 26 22 21 21 20 18 13 11 3 7 4 14 15 10 8 3 8 6 2 8 4 8 6 22 29 27 27
26 28 31 33 36 38 40 42 43 44 45 45 44 43 43 41 40 36 31 28 25 22 20 19 19 22 18 8 4 8 3 12 12 10 6 6 11 19 9 8 3 17 28 18 16 7 5
26 29 32 34 37 38 40 42 44 44 45 46 45 44 43 41 40 37 30 26 26 23 20 19 21 26 22 10 5 4 4 8 12 9 5 11 18 14 12 2 9 38 15 14 6 1 2
28 31 34 35 37 39 40 42 44 45 45 46 46 45 43 40 40 35 26 29 28 21 18 18 22 26 15 11 14 9 3 14 8 3 7 11 18 15 1 9 14 11 11 11 7 3 5
32 33 35 37 38 40 41 42 43 45 47 46 47 46 43 40 38 30 29 27 33 16 9 18 21 15 18 13 11 9 9 8 2 2 3 14 12 2 3 12 10 12 10 4 4 15 2
34 36 36 38 39 41 42 43 43 45 48 49 49 47 44 39 35 26 29 19 22 8 6 20 9 9 13 3 23 19 13 12 16 11 8 0 4 7 8 10 10 10 7 7 15 21 15
35 37 39 39 40 42 42 43 47 48 48 49 52 49 46 39 33 22 30 14 27 8 37 34 37 45 54 28 24 15 19 17 16 5 6 7 9 7 12 7 6 3 3 5 10 18 22
38 38 40 42 42 44 46 47 47 49 53 53 50 50 49 40 33 14 17 22 26 26 33 56 59 55 52 46 17 23 13 12 8 7 4 12 8 18 9 9 8 6 4 14 18 12 14
39 40 41 42 44 47 50 52 53 52 51 52 53 51 49 39 28 6 10 20 31 35 14 38 15 32 45 24 28 34 19 20 7 5 5 10 12 8 5 8 7 6 4 9 15 10 8
42 45 47 49 50 51 51 51 54 55 55 52 51 50 48 42 15 26 4 18 25 26 7 12 8 9 27 24 13 33 32 21 2 14 11 10 8 6 9 14 16 8 14 12 8 7 8
48 49 50 51 52 54 55 57 54 53 53 51 48 48 44 41 38 27 23 19 22 5 7 2 4 2 22 30 3 13 37 33 12 10 10 13 9 13 10 15 15 21 14 17 6 7 9
47 48 49 48 48 50 51 51 51 51 51 49 46 44 46 41 35 20 19 17 7 10 11 10 9 9 11 12 4 6 19 29 18 8 5 13 10 9 16 9 13 10 10 15 10 7 4
43 45 46 47 48 48 48 48 48 47 48 49 45 44 45 47 34 29 19 15 9 6 10 8 5 4 7 12 7 12 9 9 12 5 5 10 8 10 11 4 6 12 13 4 5 6 10
41 42 43 46 48 49 49 49 49 49 50 51 49 47 45 41 34 23 8 8 6 7 10 7 8 11 13 7 10 9 8 9 5 6 6 5 13 6 2 9 13 1 14 12 12 7 11
41 41 41 42 43 44 46 47 49 49 49 54 52 48 43 32 18 18 17 4 14 12 6 10 14 8 8 9 3 0 11 14 16 16 15 10 12 8 7 8 17 10 5 9 14 7 5
42 43 43 44 45 45 46 45 45 46 45 47 51 48 20 15 18 31 7 11 9 7 7 9 2 3 6 7 4 5 4 8 13 20 14 13 3 8 8 3 10 14 15 6 6 7 7
41 42 43 44 45 45 44 44 43 42 40 39 38 23 23 7 32 20 8 14 9 17 6 3 5 6 9 8 12 9 9 9 5 10 15 9 7 16 4 5 13 2 4 13 11 9 11
42 42 41 42 43 42 41 39 39 39 34 28 17 7 12 7 4 4 8 12 8 4 6 8 6 16 11 5 8 11 15 9 4 3 3 8 11 12 16 9 5 13 11 11 10 7 1
43 42 40 40 42 40 38 35 32 32 30 25 14 15 18 9 6 7 10 6 8 5 7 6 7 7 6 7 6 13 10 10 5 4 3 8 1 1 16 13 10 7 9 11 11 7 13
42 42 38 39 37 37 36 30 29 26 22 17 10 7 7 8 5 5 6 10 9 14 13 16 12 14 11 10 15 10 10 3 1 1 2 7 7 13 16 17 5 6 10 9 13 9 10
37 36 36 35 35 37 30 26 26 22 19 10 5 7 5 7 3 7 4 6 3 5 7 5 9 6 5 9 11 9 10 4 4 3 7 9 9 9 11 11 6 8 5 8 9 10 13
36 35 31 31 28 31 31 27 21 22 18 11 6 8 12 13 21 9 4 7 8 5 6 8 11 13 12 12 15 10 6 8 8 1 6 3 5 2 7 8 10 10 13 17 14 10 10
32 31 30 29 27 26 25 23 22 20 16 7 8 9 8 12 9 5 6 5 8 9 14 18 11 9 10 14 18 14 13 8 9 9 5 6 10 6 9 8 12 15 14 18 12 10 13
30 30 29 29 29 28 25 22 19 17 17 16 13 8 4 8 6 7 9 11 15 13 10 26 24 8 11 26 15 10 12 16 13 13 16 10 10 7 8 2 17 12 9 13 18 11 11
31 31 35 35 32 30 29 25 24 21 19 18 16 13 7 9 12 22 19 10 20 23 9 15 20 9 29 10 4 4 7 7 10 17 16 13 10 5 8 10 10 10 8 10 13 16 13
34 33 33 32 30 28 25 24 29 27 25 26 18 20 15 8 11 13 9 16 6 7 11 11 16 27 10 5 5 13 12 10 9 5 3 9 6 11 8 9 16 8 26 43 8 32 19
35 32 31 35 37 36 35 34 31 26 28 32 26 28 30 19 40 27 9 10 13 6 6 13 22 14 10 3 9 9 10 10 10 12 10 8 4 15 7 12 13 13 21 25 15 19 9
36 31 30 32 29 27 31 38 34 33 29 33 35 32 37 26 47 38 32 28 23 10 4 15 16 4 8 2 6 8 8 12 10 11 13 14 11 8 6 6 15 10 4 13 5 4 5
40 36 31 33 34 31 27 30 32 29 31 33 35 30 32 44 26 24 41 44 42 39 22 10 8 9 5 4 4 6 5 2 8 13 5 13 15 11 17 13 7 5 9 11 8 12 15
Wind_Direction_850mb
7 5 3 2 2 1 359 359 359 358 357 357 357 357 358 356 357 354 350 350 351 351 358 2 360 350 337 311 268 348 296 186 193 197 183 278 346 7 9 280 270 102 68 122 155 166 155
358 357 355 355 355 354 353 353 354 353 352 352 353 353 354 353 353 351 346 336 336 336 335 345 350 341 325 304 302 15 120 172 175 169 148 342 341 338 246 275 36 129 104 81 153 150 134
347 346 346 346 346 347 347 347 348 348 348 348 349 351 351 350 350 349 346 334 327 323 315 325 332 334 312 308 264 331 108 147 141 141 302 341 341 334 309 340 88 108 87 51 336 125 252
336 336 336 337 338 339 341 342 342 342 343 344 344 348 348 349 348 350 354 343 335 314 309 312 319 324 281 274 263 267 147 152 131 55 353 359 344 308 232 106 67 75 62 120 240 305 252
327 328 328 330 332 334 336 337 338 338 339 340 340 343 345 349 346 350 355 342 350 319 321 331 307 310 281 265 280 283 220 184 343 225 328 322 308 14 71 90 44 351 159 182 16 208 269
318 320 322 324 327 330 331 332 333 334 335 336 336 338 340 346 345 346 355 355 352 41 6 333 309 312 261 259 322 299 213 255 276 300 302 232 31 38 46 69 180 175 140 160 176 212 229
311 314 317 320 324 324 325 328 329 330 331 332 332 334 334 341 344 344 5 3 17 331 314 282 268 279 282 287 302 272 238 243 256 223 173 29 67 230 243 151 130 120 140 282 249 200 164
308 312 315 318 319 320 322 324 325 326 328 328 329 330 329 337 338 339 1 42 16 321 297 295 280 268 263 270 295 240 276 197 152 179 108 19 262 233 226 187 179 151 11 296 287 144 152
309 310 311 312 314 316 318 319 320 322 322 324 327 329 326 333 333 321 333 1 343 337 274 306 255 234 239 231 234 254 264 208 163 147 149 161 232 76 185 297 341 328 229 256 220 147 68
304 305 306 308 310 311 312 313 315 317 319 323 324 326 326 330 329 330 307 315 323 325 25 276 248 243 201 209 271 238 237 200 193 208 170 229 266 211 213 233 147 243 209 213 243 121 183
303 303 303 306 309 310 312 314 315 315 317 319 321 322 322 325 318 321 304 318 323 314 339 284 217 240 168 163 252 214 209 204 185 206 111 244 296 338 305 235 140 228 172 189 159 121 109
304 305 305 307 307 308 311 313 315 316 315 315 317 318 315 314 311 314 312 309 325 45 255 316 160 182 130 216 257 88 197 209 234 179 210 236 255 202 224 251 177 132 98 52 49 84 59
304 306 308 310 311 312 313 314 314 314 313 312 312 313 310 302 302 302 306 317 40 161 316 344 1 334 209 203 235 181 175 185 186 133 307 333 265 277 216 107 39 81 68 352 341 9 203
303 305 307 310 312 313 314 315 315 317 317 314 315 312 305 297 297 278 251 50 197 244 254 328 309 273 182 185 245 192 163 221 241 110 120 164 322 208 226 148 193 190 147 153 199 207 243
306 307 308 309 312 314 316 318 318 319 321 317 319 317 312 307 260 213 173 116 212 211 304 359 335 56 31 7 123 260 211 213 199 169 176 160 272 288 202 203 147 181 157 179 102 16 74
303 305 307 309 310 313 316 318 318 319 322 322 326 327 328 336 187 171 103 227 235 237 30 18 256 20 9 311 6 28 231 260 239 193 164 218 274 207 270 107 65 162 154 78 16 139 230
299 303 306 307 309 312 314 316 318 319 322 324 327 330 332 225 159 170 176 224 267 264 358 318 242 303 231 244 192 209 216 283 51 9 171 144 121 277 49 182 184 312 100 52 113 127 165
298 301 304 306 308 310 313 316 317 318 324 325 319 329 162 35 310 224 180 194 213 263 5 278 249 214 235 264 276 222 206 221 318 43 214 215 164 226 203 302 239 167 164 133 118 237 174
296 298 302 305 308 309 310 314 316 320 326 337 310 271 243 198 206 259 282 253 221 220 166 261 290 232 248 251 269 216 219 242 83 84 199 180 275 271 330 353 343 208 173 119 116 95 189
289 294 295 297 303 305 305 310 309 315 318 322 309 327 298 211 226 197 254 259 236 268 242 234 243 258 307 263 204 255 216 255 43 244 68 98 145 169 208 216 175 199 185 144 129 129 191
289 291 293 296 299 307 305 301 300 301 303 301 261 270 329 302 8 351 292 302 258 285 247 270 318 256 260 278 321 233 231 256 273 202 95 118 218 182 238 242 198 204 241 154 182 199 168
281 280 282 289 295 301 300 305 298 292 290 263 292 333 334 291 304 311 225 251 238 270 214 239 215 320 297 223 209 254 254 190 200 83 120 38 249 210 279 279 243 237 206 229 213 188 230
276 278 280 284 289 299 302 301 307 304 283 244 234 273 302 285 322 9 245 337 333 345 267 258 0 299 288 248 229 252 241 220 171 143 148 135 135 104 260 283 320 312 205 213 216 192 184
271 275 280 281 283 287 287 287 298 307 297 262 250 297 304 278 249 217 320 332 312 310 271 291 306 241 281 292 269 239 246 256 218 209 166 140 128 139 222 82 257 235 210 201 225 239 215
271 272 277 278 277 279 277 271 277 281 293 287 269 247 260 270 317 297 295 309 320 308 266 268 286 295 298 280 45 329 323 321 239 218 193 174 139 198 192 205 289 305 287 198 173 257 197
265 271 276 279 277 276 273 267 268 262 271 272 277 250 237 287 244 283 313 298 295 306 316 276 296 310 306 146 129 205 208 208 256 261 17 137 90 177 140 201 233 215 219 232 300 271 231
255 263 270 272 267 262 263 265 263 257 273 272 255 242 235 256 263 290 284 306 301 319 274 298 334 318 7 151 184 181 223 198 205 189 176 146 171 214 169 244 282 241 207 198 215 259 137
247 252 265 267 266 273 264 258 261 259 271 250 251 245 233 250 260 267 272 289 291 284 261 327 333 352 338 290 186 218 192 217 182 196 183 187 172 196 144 217 291 343 341 201 266 129 135
248 247 256 266 261 257 265 261 250 251 261 240 248 255 246 247 258 252 260 261 252 249 286 280 279 311 299 338 346 314 293 276 172 227 216 232 207 210 187 210 232 282 258 279 232 228 222